Location: Unspecified
(42.3650°N, 71.1030°W)
Time: 16:01:08
(UTC+00:00)

Transit 2A - Pass Details

Date: 30 June 2024
Orbit: 591 x 960 km, 66.7° (Epoch: 16 July)

Event Time Altitude Azimuth Distance (km) Brightness Sun altitude
Rises 04:22:43 0° 315° (NW) 3,603 10.2 -24.2°
Reaches altitude 10° 04:25:56 10° 299° (WNW) 2,681 9.2 -24.3°
Maximum altitude 04:30:16 20° 256° (WSW) 2,072 8.1 -24.4°
Enters shadow 04:31:16 19° 243° (WSW) 2,107 8.0 -24.4°
